Regional Weather Roundup
Issued by NWS

Home | Current Version | Previous Version | Graphics & Text | Print | Product List | Glossary On
Versions: 1 2 3 4 5 6 7 8 9 10 11 12 13 14 15 16 17 18 19 20 21 22 23 24 25 26 27 28 29 30 31 32 33 34 35 36 37 38 39 40 41 42 43 44 45 46 47 48 49 50
000
ASUS45 KCYS 281110
RWRWY

WYOMING REGIONAL WEATHER ROUNDUP
NATIONAL WEATHER SERVICE CHEYENNE WY
500 AM MDT TUE JUL 28 2015

NOTE:  "FAIR" INDICATES FEW OR NO CLOUDS BELOW 12,000 FEET
WITH NO SIGNIFICANT WEATHER AND/OR OBSTRUCTIONS TO VISIBILITY.

WYZ001-281200-
YELLOWSTONE NATIONAL PARK

CITY           SKY/WX    TMP DP  RH WIND       PRES   REMARKS
LK YELLOWSTONE   N/A     30  29  96 CALM      30.29R
W YELLOWSTONE  NOT AVBL

$$
WYZ002>013-054>058-071-098>099-281200-
NORTHERN WYOMING

CITY           SKY/WX    TMP DP  RH WIND       PRES   REMARKS
JACKSON        FAIR      34  32  93 CALM      30.27R
CODY           FAIR      52  30  43 W5        30.09R
GREYBULL       FAIR      47  44  90 SE7       30.06R
WORLAND        FAIR      45  40  82 S7        30.07R
SHERIDAN       FAIR      49  43  80 S6        30.01R
BUFFALO        FAIR      46  43  89 S7        30.05R
GILLETTE       FAIR      46  42  86 W9        30.03R
HULETT         FAIR      50  45  81 SW12      30.01R
NEWCASTLE      FAIR      48  43  81 NW9       30.04S

$$
WYZ014>020-022>026-101>103-281200-
CENTRAL WYOMING

CITY           SKY/WX    TMP DP  RH WIND       PRES   REMARKS
BIG PINEY      FAIR      32  25  75 E6        30.28R WCI  26
PINEDALE       FAIR      30  28  93 W5        30.29R WCI  25
DUBOIS         FAIR      37  28  70 N9G21     30.21R WCI  31
LANDER         FAIR      40  28  62 S7        30.13R
RIVERTON       FAIR      47  30  51 W10       30.14R
CASPER         FAIR      46  29  51 SW12      30.11R
DOUGLAS        FAIR      54  29  38 W10       30.09R

$$
WYZ021-027>030-104>119-281200-
SOUTHERN WYOMING

CITY           SKY/WX    TMP DP  RH WIND       PRES   REMARKS
EVANSTON       FAIR      43  31  62 SW3       30.30S
KEMMERER       FAIR      39  25  56 W5        30.30S
FORT BRIDGER   SUNNY     45  32  61 W8        30.32S
ROCK SPRINGS   FAIR      48  22  35 SW12      30.27R
DIXON          FAIR      40  31  69 CALM      30.30R
RAWLINS        FAIR      47  29  49 W14       30.24R
SARATOGA       FAIR      45  30  57 SW8       30.27S
LARAMIE        FAIR      47  28  47 NW5       30.21S
CHEYENNE       FAIR      57  29  34 NW18G29   30.14R
TORRINGTON     FAIR      57  46  66 VRB5      30.03S
PINE BLUFFS    FAIR      55  32  41 NW14      30.08S

$$


USA.gov is the U.S. government's official web portal to all federal, state and local government web resources and services.